Bellefontaine, OH

4:43 AM EDT on April 25, 2017 (GMT -0400)
Bellefontaine

Weather History for KEDJ - February, 2013

Change the Weather History Date:

Saturday, February 23, 2013

  Actual Average (KDAY) Record (KDAY)
Temperature  
Mean Temperature 32 °F -  
Max Temperature 35 °F 41 °F 70 °F (2017)
Min Temperature 26 °F 25 °F 0 °F (2015)
Degree Days  
Heating Degree Days 34    
Moisture  
Dew Point 28 °F    
Average Humidity 86    
Maximum Humidity 100    
Minimum Humidity 70    
Precipitation  
Precipitation 0.00 in - - ()
Sea Level Pressure  
Sea Level Pressure 29.90 in    
Wind  
Wind Speed 8 mph (West)    
Max Wind Speed 13 mph    
Max Gust Speed 16 mph    
Visibility 10 miles    
Events      
Averages and records for this station are not official NWS values.
T = Trace of Precipitation, MM = Missing Value Source: NWS Daily Summary

Daily Weather History Graph

Daily Weather History Graph

Search for Another Location

Airport or City:

Trip Planner

Search our weather history database for the weather conditions in past years. The results will help you decide how hot, cold, wet, or windy it might be!

Date:

Astronomy

Feb. 23, 2013 Rise Set
Actual Time 7:17 AM EST 6:20 PM EST
Civil Twilight 6:49 AM EST 6:47 PM EST
Nautical Twilight 6:18 AM EST 7:19 PM EST
Astronomical Twilight 5:46 AM EST 7:51 PM EST
Moon 4:29 PM EST (2/23) 5:39 AM EST (2/23)
Length of Visible Light 11h 57m
Length of Day
11h 02m
Waxing Gibbous, 95% of the Moon is Illuminated
Feb 23
Waxing Gibbous
Feb 25
Full
Mar 4
Last Quarter
Mar 11
New
Mar 19
First Quarter

Hourly Weather History & Observations

Time (EST) Temp. Windchill Dew Point Humidity Pressure Visibility Wind Dir Wind Speed Gust Speed Precip Events Conditions
12:15 AM 32.0 °F 24.8 °F 32.0 °F 100% 29.92 in 10.0 mi South 8.1 mph - 0.00 in   Overcast
12:55 AM 32.0 °F 25.6 °F 32.0 °F 100% 29.92 in 10.0 mi South 6.9 mph - 0.00 in   Overcast
1:15 AM 32.0 °F 25.6 °F 32.0 °F 100% 29.91 in 10.0 mi South 6.9 mph - 0.00 in   Overcast
1:35 AM 32.0 °F 25.6 °F 32.0 °F 100% 29.91 in 10.0 mi South 6.9 mph - 0.00 in   Overcast
2:15 AM 32.0 °F 25.6 °F 32.0 °F 100% 29.91 in 8.0 mi South 6.9 mph - 0.00 in   Overcast
2:35 AM 32.0 °F 26.4 °F 32.0 °F 100% 29.91 in 8.0 mi SSW 5.8 mph - 0.00 in   Overcast
2:50 AM 32.0 °F 24.2 °F 32.0 °F 100% 29.91 in 9.0 mi West 9.2 mph - 0.00 in   Overcast
3:15 AM 32.0 °F 24.8 °F 32.0 °F 100% 29.91 in 9.0 mi West 8.1 mph - 0.00 in   Overcast
3:35 AM 32.0 °F 25.6 °F 32.0 °F 100% 29.90 in 8.0 mi WSW 6.9 mph - 0.00 in   Mostly Cloudy
3:50 AM 32.0 °F 26.4 °F 32.0 °F 100% 29.90 in 9.0 mi WSW 5.8 mph - 0.00 in   Mostly Cloudy
4:10 AM 32.0 °F 26.4 °F 32.0 °F 100% 29.90 in 7.0 mi SW 5.8 mph - 0.00 in   Overcast
4:35 AM 32.0 °F 24.8 °F 32.0 °F 100% 29.90 in 8.0 mi SW 8.1 mph - 0.00 in   Overcast
4:55 AM 32.0 °F 25.6 °F 32.0 °F 100% 29.90 in 8.0 mi WSW 6.9 mph - 0.00 in   Overcast
5:10 AM 32.0 °F 24.8 °F 32.0 °F 100% 29.90 in 9.0 mi WSW 8.1 mph - 0.00 in   Overcast
5:30 AM 32.0 °F 24.8 °F 32.0 °F 100% 29.91 in 7.0 mi West 8.1 mph - 0.00 in   Overcast
5:55 AM 32.0 °F 24.8 °F 32.0 °F 100% 29.90 in 8.0 mi WSW 8.1 mph - 0.00 in   Overcast
6:10 AM 32.0 °F 24.8 °F 30.2 °F 93% 29.90 in 8.0 mi WSW 8.1 mph - 0.00 in   Overcast
6:35 AM 32.0 °F 25.6 °F 30.2 °F 93% 29.91 in 8.0 mi WSW 6.9 mph - 0.00 in   Overcast
6:55 AM 32.0 °F 24.2 °F 30.2 °F 93% 29.91 in 7.0 mi West 9.2 mph - 0.00 in   Overcast
7:10 AM 30.2 °F 20.2 °F 30.2 °F 100% 29.92 in 8.0 mi West 12.7 mph - 0.00 in   Overcast
7:35 AM 32.0 °F 24.8 °F 30.2 °F 93% 29.92 in 7.0 mi WSW 8.1 mph - 0.00 in   Overcast
7:55 AM 30.2 °F 22.6 °F 28.4 °F 93% 29.92 in 9.0 mi West 8.1 mph - 0.00 in   Overcast
8:10 AM 30.2 °F 21.3 °F 28.4 °F 93% 29.92 in 10.0 mi WSW 10.4 mph - 0.00 in   Overcast
8:35 AM 30.2 °F 21.3 °F 26.6 °F 86% 29.93 in 10.0 mi West 10.4 mph - 0.00 in   Overcast
8:55 AM 30.2 °F 21.9 °F 26.6 °F 86% 29.93 in 10.0 mi West 9.2 mph - 0.00 in   Overcast
9:10 AM 30.2 °F 22.6 °F 24.8 °F 80% 29.94 in 10.0 mi West 8.1 mph - 0.00 in   Overcast
9:35 AM 30.2 °F 20.8 °F 23.0 °F 75% 29.93 in 10.0 mi WSW 11.5 mph - 0.00 in   Mostly Cloudy
9:55 AM 30.2 °F 21.9 °F 23.0 °F 75% 29.93 in 10.0 mi WSW 9.2 mph - 0.00 in   Overcast
10:10 AM 30.2 °F 20.8 °F 23.0 °F 75% 29.93 in 10.0 mi WSW 11.5 mph - 0.00 in   Overcast
11:10 AM 30.2 °F 23.4 °F 24.8 °F 80% 29.91 in 10.0 mi West 6.9 mph - 0.00 in   Mostly Cloudy
11:30 AM 30.2 °F 21.9 °F 24.8 °F 80% 29.91 in 10.0 mi WNW 9.2 mph - 0.00 in   Mostly Cloudy
11:55 AM 30.2 °F 20.2 °F 24.8 °F 80% 29.92 in 10.0 mi West 12.7 mph - 0.00 in   Mostly Cloudy
12:10 PM 32.0 °F 23.6 °F 24.8 °F 75% 29.92 in 10.0 mi WSW 10.4 mph - 0.00 in   Scattered Clouds
12:35 PM 32.0 °F 24.8 °F 26.6 °F 80% 29.91 in 10.0 mi West 8.1 mph 16.1 mph 0.00 in   Mostly Cloudy
12:55 PM 32.0 °F 24.2 °F 26.6 °F 80% 29.90 in 10.0 mi West 9.2 mph - 0.00 in   Mostly Cloudy
1:10 PM 32.0 °F 26.4 °F 24.8 °F 75% 29.90 in 10.0 mi West 5.8 mph - 0.00 in   Mostly Cloudy
1:35 PM 32.0 °F 24.2 °F 26.6 °F 80% 29.90 in 10.0 mi WSW 9.2 mph - 0.00 in   Mostly Cloudy
1:55 PM 33.8 °F 25.3 °F 28.4 °F 81% 29.90 in 10.0 mi WSW 11.5 mph - 0.00 in   Mostly Cloudy
2:10 PM 33.8 °F 26.4 °F 26.6 °F 75% 29.89 in 10.0 mi West 9.2 mph - 0.00 in   Scattered Clouds
2:35 PM 33.8 °F 27.0 °F 26.6 °F 75% 29.87 in 10.0 mi WSW 8.1 mph - 0.00 in   Partly Cloudy
2:55 PM 33.8 °F 28.6 °F 26.6 °F 75% 29.87 in 10.0 mi West 5.8 mph - 0.00 in   Scattered Clouds
3:10 PM 33.8 °F 27.7 °F 26.6 °F 75% 29.87 in 10.0 mi WSW 6.9 mph - 0.00 in   Scattered Clouds
3:30 PM 33.8 °F 27.0 °F 26.6 °F 75% 29.87 in 10.0 mi West 8.1 mph - 0.00 in   Scattered Clouds
3:55 PM 35.6 °F 29.2 °F 26.6 °F 70% 29.87 in 10.0 mi WSW 8.1 mph - 0.00 in   Scattered Clouds
4:10 PM 33.8 °F 27.0 °F 26.6 °F 75% 29.87 in 10.0 mi SW 8.1 mph - 0.00 in   Scattered Clouds
4:35 PM 33.8 °F 27.0 °F 26.6 °F 75% 29.88 in 10.0 mi SW 8.1 mph - 0.00 in   Mostly Cloudy
4:55 PM 33.8 °F 27.7 °F 26.6 °F 75% 29.87 in 10.0 mi WSW 6.9 mph - 0.00 in   Scattered Clouds
5:10 PM 33.8 °F 27.7 °F 26.6 °F 75% 29.87 in 10.0 mi WSW 6.9 mph - 0.00 in   Scattered Clouds
5:35 PM 33.8 °F 27.0 °F 26.6 °F 75% 29.87 in 10.0 mi West 8.1 mph - 0.00 in   Scattered Clouds
5:55 PM 32.0 °F 27.5 °F 26.6 °F 80% 29.88 in 10.0 mi West 4.6 mph - 0.00 in   Partly Cloudy
6:10 PM 32.0 °F 28.7 °F 26.6 °F 80% 29.88 in 10.0 mi West 3.5 mph - 0.00 in   Partly Cloudy
6:35 PM 32.0 °F 28.7 °F 26.6 °F 80% 29.88 in 10.0 mi West 3.5 mph - 0.00 in   Mostly Cloudy
6:55 PM 32.0 °F 28.7 °F 26.6 °F 80% 29.88 in 10.0 mi WNW 3.5 mph - 0.00 in   Mostly Cloudy
7:10 PM 30.2 °F 25.4 °F 26.6 °F 86% 29.89 in 10.0 mi West 4.6 mph - 0.00 in   Partly Cloudy
7:30 PM 30.2 °F 21.3 °F 26.6 °F 86% 29.89 in 10.0 mi WNW 10.4 mph - 0.00 in   Partly Cloudy
7:55 PM 30.2 °F 22.6 °F 26.6 °F 86% 29.89 in 10.0 mi WNW 8.1 mph - 0.00 in   Clear
8:10 PM 30.2 °F 25.4 °F 26.6 °F 86% 29.89 in 10.0 mi WNW 4.6 mph - 0.00 in   Clear
8:35 PM 30.2 °F 23.4 °F 24.8 °F 80% 29.89 in 10.0 mi NW 6.9 mph - 0.00 in   Clear
8:55 PM 30.2 °F 22.6 °F 24.8 °F 80% 29.90 in 10.0 mi WNW 8.1 mph - 0.00 in   Clear
9:10 PM 28.4 °F 20.4 °F 24.8 °F 86% 29.90 in 10.0 mi NW 8.1 mph - 0.00 in   Clear
9:30 PM 28.4 °F 22.2 °F 24.8 °F 86% 29.90 in 10.0 mi NW 5.8 mph - 0.00 in   Clear
9:55 PM 28.4 °F 20.4 °F 24.8 °F 86% 29.89 in 10.0 mi NW 8.1 mph - 0.00 in   Clear
10:10 PM 28.4 °F 20.4 °F 24.8 °F 86% 29.89 in 10.0 mi WNW 8.1 mph - 0.00 in   Clear
10:30 PM 28.4 °F 20.4 °F 24.8 °F 86% 29.89 in 10.0 mi NW 8.1 mph - 0.00 in   Clear
10:55 PM 28.4 °F 21.2 °F 24.8 °F 86% 29.89 in 10.0 mi WNW 6.9 mph - 0.00 in   Clear
11:10 PM 28.4 °F 22.2 °F 24.8 °F 86% 29.89 in 10.0 mi WNW 5.8 mph - 0.00 in   Clear
11:30 PM 28.4 °F 22.2 °F 24.8 °F 86% 29.89 in 10.0 mi WNW 5.8 mph - 0.00 in   Clear
11:55 PM 26.6 °F 22.6 °F 24.8 °F 93% 29.89 in 10.0 mi West 3.5 mph - 0.00 in   Clear